STARLINK-1107, 44972

Orbit data source: Space-Track

STARLINK-1107, 44972 is a payload satellite owned by SpaceX/Seattle (US) in LEO that was launched on Tue, 07 Jan 2020 UTC via an FALCON 9 launch vehicle from the Air Force Eastern Test Range (AFETR). Payload-class satellites include a variety of spacecraft equipped with specific instruments for various scientific and technological missions. These include communications satellites like Starlink; space stations such as the ISS; scientific satellites like the Hubble; Earth observation satellites from companies like Planet Labs, Umbra, and HawkEye 360; GPS; miniature CubeSats for education and research; and military/defense satellites.

Loading next visibility...
Identifier
44972, 2020-001BL
Orbit
LEO
Last TLE update
14 hours ago
Origin
Manufacturer
SpaceX/Seattle
Mission
Partially operational Commercial Communications
Bus & Motor
STARLINK, Unknown motor
Mass
260 kg wet, ~248 kg dry
Launch date (UTC)
2020-01-07 (6 years ago)
Launch vehicle
FALCON 9
Launch site
Air Force Eastern Test Range (AFETR)
Object type
Payload
Rocket body
Debris
Shape & HBR
Box + 1 Pan, 8.86 m
Radar Cross Section
13.562 m², Large (>1 m²)

Expand to show TLE details & history

TLE from 14 hours ago
0 STARLINK-1107
1 44972U 20001BL  25191.50761864  .00025161  00000-0  50643-3 0  9990
2 44972  53.0165 267.1935 0000939 178.0847 182.0163 15.46465460304567
Epoch: 2025-07-10T12:10Z
TLE epoch observation values (Epoch: 2025-07-10T12:10:58.25Z)
Latitude
Longitude
155.77789°
Altitude
428.605 km
Speed
7.655 km/s
True Right ascension
17h 48m 46s
True Declination
0° 00' 00"
Sunlit
Object was in full shadow at epoch
Visualization orbit readout
Latitude
52.30595°
Longitude
-131.33034°
Altitude
433.405 km
Speed
7.658 km/s
Apparent Right ascension
00h 54m 05s
Apparent Declination
9° 25' 23"
Sunlit
Object is in daylight
Visualization observer readout
Local Sidereal Time
14:46:05
Azimuth
34.08° NE
Elevation
-34.266°
Doppler factor
1
Orbital elements
Apogee altitude
427.996 km
Perigee altitude
426.718 km
Semi-major axis
6,805.494 km
Eccentricity
0.00009
Inclination
53.0165°
RAAN
267.1935°
Arg. of periapsis
178.0847°
True anomaly
Unknown
Mean anomaly
182.0163°
Eccentric anomaly
Unknown
Mean motion
3.86593 °/min
Orbital period
93.12 mins
BSTAR
0.00050643
Loading maneuver chart data...
Loading SW <> Apogee altitude chart data...

STARLINK-1107 Visibility forecast

Observer location: undefined°, undefined°

Span
Click to sort rows by Start time (UTC) header in descending order
Start Az.
Max El. time (UTC)
Max El. Az.
Max El.
End time (UTC)
End Az.
4 mins2025-07-11 06:57:31.061Z180.324° SSW2025-07-11 06:59:31.061Z134.418° SE22.952°2025-07-11 07:01:31.061Z85.257° E
4 mins2025-07-11 08:34:31.061Z273.28° WNW2025-07-11 08:36:31.061Z334.331° NNW29.201°2025-07-11 08:38:31.061Z26.344° NE
4 mins2025-07-11 13:28:31.061Z349.131° N2025-07-11 13:29:31.061Z13.688° NNE22.505°2025-07-11 13:32:31.061Z83.655° E
4 mins2025-07-11 15:05:31.061Z276.594° WNW2025-07-11 15:06:31.061Z245.656° WSW30.891°2025-07-11 15:09:31.061Z159.881° S
|